Wind_Speed
19 20 21 21 23 24 25 26 28 28 28 28 27 26 26 27 27 28 30 30 30 30 29 30 30 30 31 31 31 31 31 31 32 32 33 33 33 33 34 35 35 35 35
20 21 21 22 22 23 24 25 26 27 27 28 28 28 27 27 26 27 29 29 30 31 31 31 31 31 32 32 33 33 33 32 32 33 33 33 33 34 35 35 36 36 36
20 21 22 22 22 23 24 24 25 27 27 28 28 28 30 29 28 28 29 30 31 32 32 32 32 33 33 34 35 35 35 36 36 36 35 35 35 35 34 35 36 36 36
21 21 22 22 23 24 24 24 24 25 27 28 28 29 30 29 28 28 29 30 31 32 33 34 34 34 35 36 36 37 37 38 38 38 38 38 39 38 37 36 37 37 38
21 22 22 22 23 24 25 25 25 25 27 28 29 30 30 30 29 29 30 31 32 33 34 35 35 36 37 37 38 39 39 40 40 40 40 41 41 41 41 40 40 40 41
21 21 22 22 23 24 25 26 27 27 28 28 29 30 30 30 29 30 31 32 33 33 35 37 37 37 39 40 40 41 41 41 42 42 42 43 43 43 43 43 42 42 43
22 23 23 23 23 25 26 27 28 28 29 29 29 30 30 30 31 32 32 33 34 35 36 38 38 39 41 41 42 43 43 43 44 44 44 45 45 46 46 46 45 44 44
23 24 24 25 25 26 27 28 29 30 30 30 30 30 32 32 33 33 34 35 36 37 38 38 39 40 41 42 42 43 43 44 44 44 45 46 46 47 47 47 47 47 46
24 25 26 26 27 27 29 29 30 31 31 31 32 32 33 33 34 35 36 36 37 39 39 40 41 41 42 43 43 44 44 45 45 45 45 46 47 48 48 49 49 49 49
25 26 26 27 28 29 30 31 31 32 32 33 34 34 34 36 36 37 37 39 39 40 41 42 42 43 43 44 44 45 45 46 46 46 47 48 49 49 49 50 50 51 52
26 27 28 29 29 31 32 33 34 35 35 36 36 36 37 38 38 39 40 41 41 42 43 43 44 45 45 46 46 46 46 47 48 48 49 50 50 51 51 51 52 52 53
29 29 30 31 32 32 33 34 36 37 38 39 38 39 40 40 41 42 42 43 44 44 44 45 45 46 47 47 47 46 47 48 49 49 50 51 51 52 53 53 54 54 54
31 32 33 34 35 36 36 37 37 38 39 40 40 41 42 43 44 44 45 46 46 46 47 47 48 48 48 48 48 48 48 48 49 50 51 51 52 53 54 54 54 54 54
34 35 36 37 38 39 39 40 40 41 41 42 42 43 44 44 45 46 47 48 48 49 49 50 50 50 51 50 49 50 50 50 50 51 51 52 53 53 54 55 55 55 55
37 38 39 39 40 41 41 42 42 43 44 44 45 45 46 46 46 47 49 50 51 51 52 52 51 51 52 52 51 52 52 52 52 52 52 53 54 54 55 55 55 55 55
40 41 41 42 43 43 44 44 44 45 46 46 46 47 47 47 48 48 49 50 51 52 52 52 52 52 53 53 53 52 53 53 53 53 53 54 54 54 54 55 55 55 55
42 43 43 44 45 46 46 46 46 47 47 48 48 48 49 49 50 50 50 51 51 51 51 51 51 51 51 52 52 52 52 52 52 52 52 52 53 53 54 54 54 54 54
43 44 45 45 46 47 47 48 48 49 49 49 49 50 50 51 51 51 51 51 51 51 51 51 51 51 51 52 53 53 52 51 51 52 52 52 52 53 53 53 53 53 53
44 44 45 46 46 47 47 48 49 49 49 49 50 50 51 51 51 51 51 51 52 51 51 51 52 52 51 51 52 52 52 52 51 52 53 53 53 53 53 53 52 52 52
44 44 45 45 46 47 47 48 48 49 49 49 49 50 50 51 51 51 51 51 51 51 51 51 51 51 51 51 51 51 51 52 51 51 52 52 53 52 53 53 52 51 50
45 45 46 46 47 47 48 48 48 48 48 48 48 49 50 50 50 50 50 50 50 50 50 50 49 50 51 50 50 50 50 50 50 50 50 50 51 52 52 52 51 50 49
46 46 46 47 47 47 48 47 47 47 47 47 47 47 48 48 48 49 48 49 48 48 48 48 48 48 48 48 48 48 48 49 49 48 48 48 48 49 48 48 47 47 46
46 46 46 46 46 47 47 47 47 47 46 46 45 45 46 46 46 46 46 46 46 46 46 46 46 46 46 46 46 46 47 47 47 47 47 47 47 47 46 46 45 44 44
45 46 46 46 46 46 46 46 46 46 46 45 45 44 44 44 44 44 44 44 44 45 45 45 45 45 45 45 45 45 46 46 46 46 46 45 45 44 44 43 42 42 42
45 46 46 46 46 46 45 45 45 45 44 44 43 43 43 43 43 43 43 44 44 44 44 44 44 44 43 43 44 45 44 44 44 44 44 43 43 42 41 41 41 40 39
45 45 45 45 45 45 44 44 44 44 43 42 41 41 42 42 42 42 42 42 43 43 43 43 43 43 43 43 43 44 44 43 42 42 42 41 41 41 40 40 39 38 37
Wind_Direction
246 243 244 246 247 245 243 244 247 246 246 246 245 245 246 249 252 253 251 250 249 249 250 252 254 256 257 259 261 261 263 263 263 263 264 266 268 269 271 272 272 273 274
246 245 247 248 247 245 244 245 248 246 249 248 247 247 248 248 249 251 251 251 251 251 252 253 255 256 258 260 262 263 264 265 265 265 266 267 268 270 271 272 272 273 274
248 249 250 249 247 247 245 247 248 248 250 250 250 249 250 249 251 252 253 253 253 253 253 255 258 258 259 261 263 264 265 266 268 268 268 267 267 269 271 272 272 274 275
250 252 253 251 249 248 247 249 252 252 252 252 252 251 252 253 254 255 257 256 254 255 256 258 258 259 260 261 262 263 265 267 269 269 269 269 269 269 269 271 272 273 276
252 252 253 252 252 251 251 252 253 255 255 254 254 254 254 255 257 259 259 259 256 258 259 259 259 260 262 263 263 264 266 268 269 269 270 270 270 270 271 272 274 275 276
254 252 253 255 255 253 255 255 256 257 258 258 257 255 257 259 260 261 262 262 261 263 263 262 263 263 264 265 265 266 268 268 270 270 270 270 270 270 271 272 273 275 276
253 253 254 255 257 255 257 258 259 259 261 260 260 259 261 262 261 261 262 263 265 265 266 266 266 265 266 266 267 267 268 269 270 270 271 270 270 271 272 272 273 274 275
254 254 256 256 257 257 259 264 262 261 261 261 263 262 263 263 263 263 263 264 265 266 267 268 268 267 267 267 268 268 269 269 271 272 272 272 272 272 273 273 274 274 274
258 257 257 260 261 261 263 265 263 262 262 265 265 267 265 266 266 265 265 266 267 267 269 270 270 269 268 268 268 269 269 270 271 272 272 273 273 273 274 275 275 276 275
261 262 262 263 264 265 266 266 265 263 263 265 267 268 265 266 266 266 267 267 269 270 270 270 271 271 270 270 270 270 270 271 272 272 273 274 274 274 275 275 276 277 277
263 263 263 264 265 266 267 266 265 264 264 265 267 268 267 266 266 266 267 268 269 271 271 272 272 272 272 271 272 271 271 271 272 273 273 273 274 274 275 276 276 277 277
264 264 264 265 266 266 267 266 265 265 265 266 268 269 268 267 267 268 268 269 270 271 272 272 273 273 272 272 273 272 272 272 272 273 273 273 274 274 275 276 277 277 277
264 265 266 266 267 267 268 268 267 267 267 268 269 269 270 269 269 269 269 269 270 271 272 273 274 273 273 273 273 273 273 274 274 273 274 274 274 275 275 276 277 277 278
265 266 266 267 267 268 268 269 269 269 269 269 269 270 270 270 270 270 270 270 271 272 273 274 274 274 273 273 273 274 274 274 274 274 274 274 274 275 276 276 277 277 277
266 267 267 267 267 268 269 269 269 269 269 270 270 270 271 271 271 272 272 271 272 272 273 273 274 274 274 273 274 274 274 274 274 274 275 275 275 276 276 277 277 277 277
267 267 268 267 268 268 269 269 269 269 269 270 270 271 271 271 272 273 273 273 273 273 273 273 273 274 274 274 274 274 274 275 275 275 275 276 276 276 276 276 277 277 277
268 268 268 268 268 268 269 269 269 269 269 270 270 271 271 272 272 273 274 274 274 274 274 273 274 274 274 274 274 274 275 275 275 275 275 276 276 276 277 277 277 277 278
269 268 268 269 269 270 270 270 269 269 269 270 270 271 271 271 272 273 274 274 274 274 274 273 273 274 274 274 274 275 275 275 275 275 275 276 276 277 277 276 277 277 278
269 270 270 270 270 271 271 271 271 270 270 270 271 271 272 272 272 272 273 273 273 273 273 273 273 274 274 274 274 275 275 275 275 276 276 276 276 277 278 277 277 277 277
270 271 271 272 272 272 272 272 272 271 270 270 271 272 272 272 272 273 273 273 273 273 273 273 273 274 274 275 275 275 276 276 275 276 276 277 277 277 278 277 277 277 277
272 272 273 273 273 273 273 274 273 272 271 270 271 271 272 272 273 272 272 272 273 273 273 273 273 274 275 275 275 275 276 276 276 276 276 277 278 278 278 277 277 277 275
274 274 274 275 274 274 274 274 274 273 271 271 271 272 273 273 274 273 273 273 273 273 273 273 274 274 275 274 274 274 276 276 277 276 276 277 278 278 278 277 277 276 276
275 275 275 275 274 274 274 274 273 272 270 270 271 272 273 274 274 273 272 272 272 273 273 274 274 274 274 274 274 275 277 278 278 277 277 277 278 278 278 278 277 276 276
275 275 275 275 275 275 274 274 273 271 270 270 271 272 273 273 273 273 272 271 272 273 273 274 274 274 274 274 274 276 278 278 278 278 278 278 278 278 277 276 276 275 276
277 276 276 276 276 275 275 274 274 272 271 270 271 272 273 273 273 273 272 272 273 273 273 273 274 274 273 273 274 276 277 277 278 278 278 278 278 278 277 276 276 276 275
278 277 276 276 277 276 275 274 273 272 271 271 272 273 274 275 274 273 272 273 273 273 274 274 274 273 273 274 275 276 276 276 277 277 278 278 277 277 276 276 276 275 274
Height
5734 5735 5736 5738 5739 5741 5744 5746 5747 5749 5751 5754 5756 5758 5760 5763 5764 5766 5768 5769 5771 5773 5774 5776 5777 5779 5780 5781 5782 5783 5783 5784 5785 5786 5786 5786 5785 5785 5784 5784 5783 5782 5782
5729 5730 5731 5733 5734 5736 5738 5740 5742 5744 5746 5748 5750 5752 5754 5756 5758 5759 5761 5763 5764 5766 5767 5769 5770 5772 5773 5774 5775 5776 5776 5776 5777 5778 5778 5778 5778 5776 5776 5775 5775 5774 5773
5724 5726 5727 5728 5729 5731 5733 5735 5737 5738 5740 5742 5744 5746 5748 5750 5752 5753 5755 5756 5757 5759 5760 5762 5763 5764 5765 5766 5767 5768 5768 5769 5769 5769 5769 5769 5769 5769 5768 5767 5766 5766 5765
5720 5721 5722 5723 5724 5726 5728 5730 5731 5732 5734 5736 5738 5740 5742 5744 5745 5747 5748 5749 5750 5751 5753 5754 5755 5756 5757 5758 5758 5759 5759 5760 5760 5760 5759 5759 5759 5760 5760 5759 5758 5757 5755
5716 5717 5718 5718 5719 5720 5722 5724 5726 5727 5728 5730 5732 5734 5735 5737 5738 5739 5741 5741 5743 5744 5745 5746 5746 5747 5748 5748 5749 5749 5750 5750 5750 5750 5750 5749 5749 5749 5749 5750 5749 5747 5746
5711 5712 5713 5713 5714 5715 5717 5718 5720 5721 5722 5723 5725 5727 5728 5730 5731 5732 5733 5734 5735 5735 5736 5737 5737 5737 5738 5739 5739 5739 5740 5740 5740 5740 5740 5739 5739 5738 5738 5738 5738 5737 5736
5705 5707 5708 5709 5709 5710 5711 5712 5713 5714 5715 5717 5718 5719 5721 5722 5723 5724 5725 5726 5726 5727 5727 5727 5727 5728 5728 5728 5728 5729 5729 5729 5729 5729 5728 5728 5727 5727 5726 5726 5726 5726 5725
5700 5701 5702 5703 5704 5704 5705 5706 5706 5707 5709 5710 5711 5712 5713 5714 5715 5716 5716 5717 5717 5717 5717 5717 5717 5717 5717 5717 5717 5717 5718 5718 5717 5717 5716 5716 5715 5715 5714 5714 5713 5713 5713
5694 5695 5696 5697 5697 5698 5699 5699 5700 5701 5702 5702 5703 5704 5705 5705 5706 5706 5706 5707 5707 5707 5707 5707 5707 5706 5706 5706 5706 5706 5706 5706 5705 5705 5704 5704 5703 5702 5701 5701 5700 5699 5699
5687 5688 5689 5690 5690 5690 5691 5692 5693 5693 5694 5694 5695 5695 5696 5696 5696 5697 5697 5697 5697 5697 5696 5696 5696 5695 5695 5694 5694 5694 5693 5693 5693 5692 5691 5691 5690 5689 5688 5687 5686 5685 5684
5680 5680 5681 5682 5682 5683 5683 5684 5684 5684 5685 5685 5685 5685 5685 5686 5686 5686 5686 5686 5686 5685 5685 5685 5684 5683 5683 5682 5681 5681 5680 5680 5680 5679 5678 5677 5676 5675 5674 5673 5672 5670 5669
5672 5672 5673 5673 5674 5674 5675 5675 5675 5675 5675 5675 5675 5675 5675 5675 5675 5675 5675 5674 5674 5674 5673 5672 5671 5671 5670 5669 5668 5668 5667 5666 5666 5665 5664 5663 5662 5661 5660 5658 5657 5655 5654
5663 5664 5664 5664 5664 5665 5665 5665 5665 5665 5665 5665 5664 5664 5663 5663 5663 5663 5662 5662 5661 5661 5660 5659 5659 5658 5657 5656 5655 5654 5653 5653 5652 5651 5650 5648 5647 5646 5645 5643 5642 5640 5639
5654 5654 5654 5654 5654 5654 5654 5654 5654 5654 5654 5653 5653 5652 5651 5651 5651 5650 5649 5649 5648 5647 5647 5646 5645 5644 5643 5642 5641 5640 5639 5638 5637 5636 5635 5633 5632 5631 5630 5628 5627 5625 5623
5643 5643 5643 5643 5643 5643 5643 5643 5642 5642 5642 5641 5641 5640 5639 5638 5637 5636 5636 5635 5634 5633 5632 5632 5631 5630 5628 5627 5626 5625 5624 5623 5622 5621 5620 5618 5617 5615 5614 5613 5611 5609 5608
5632 5632 5631 5631 5631 5631 5631 5630 5630 5629 5628 5628 5627 5626 5625 5625 5624 5623 5622 5621 5620 5619 5618 5617 5616 5615 5614 5612 5611 5610 5609 5608 5607 5606 5605 5603 5601 5599 5598 5596 5595 5594 5592
5620 5620 5619 5619 5618 5618 5617 5617 5616 5615 5615 5614 5613 5612 5611 5610 5609 5608 5607 5606 5605 5604 5603 5602 5601 5600 5599 5597 5596 5594 5594 5593 5592 5591 5589 5588 5586 5584 5582 5581 5579 5578 5576
5607 5607 5606 5606 5605 5604 5603 5603 5602 5601 5600 5599 5598 5597 5596 5595 5594 5593 5592 5591 5590 5589 5588 5587 5586 5585 5584 5582 5580 5579 5578 5578 5577 5575 5574 5573 5571 5569 5566 5565 5564 5563 5561
5594 5593 5593 5592 5591 5590 5589 5588 5587 5586 5585 5584 5584 5583 5581 5580 5579 5578 5577 5576 5574 5574 5572 5571 5570 5569 5569 5566 5565 5563 5563 5562 5561 5560 5559 5557 5556 5554 5552 5550 5549 5548 5546
5581 5580 5579 5578 5577 5576 5575 5574 5572 5571 5571 5570 5569 5568 5566 5565 5564 5563 5562 5560 5559 5558 5557 5557 5555 5554 5553 5552 5550 5548 5547 5547 5546 5545 5544 5542 5540 5538 5536 5534 5533 5532 5531
5567 5566 5565 5564 5563 5562 5560 5559 5558 5556 5555 5554 5553 5553 5551 5550 5549 5547 5546 5545 5544 5543 5543 5542 5541 5539 5538 5537 5535 5534 5532 5532 5531 5530 5529 5527 5525 5523 5521 5519 5518 5516 5515
5554 5552 5551 5550 5549 5547 5546 5545 5543 5542 5540 5540 5539 5538 5537 5535 5534 5532 5531 5530 5529 5528 5528 5527 5526 5525 5524 5522 5521 5520 5518 5517 5516 5515 5514 5512 5510 5508 5506 5505 5503 5502 5501
5539 5538 5537 5536 5534 5533 5531 5530 5529 5527 5526 5525 5524 5523 5522 5521 5519 5518 5517 5516 5515 5514 5513 5512 5512 5511 5510 5509 5507 5506 5504 5503 5501 5500 5499 5498 5496 5494 5493 5491 5490 5488 5487
5526 5524 5523 5521 5520 5518 5516 5515 5514 5513 5512 5511 5511 5509 5508 5507 5505 5504 5503 5502 5501 5500 5499 5498 5498 5497 5497 5496 5494 5492 5491 5490 5488 5486 5485 5484 5482 5481 5479 5478 5476 5475 5474
5511 5510 5508 5507 5506 5504 5502 5501 5499 5498 5498 5498 5497 5496 5495 5493 5492 5490 5489 5488 5488 5486 5486 5485 5484 5484 5483 5482 5481 5479 5478 5477 5475 5473 5472 5471 5470 5468 5467 5465 5464 5463 5462
5497 5496 5494 5493 5491 5490 5488 5487 5485 5484 5484 5484 5484 5482 5481 5480 5478 5477 5477 5475 5474 5474 5472 5471 5471 5470 5470 5469 5468 5466 5465 5463 5462 5461 5459 5458 5457 5456 5454 5453 5452 5451 5451